| time (UTC) | temp C | wind direction | speed KPH | gust KPH | rain 1hr cm | rain 24hr cm | rain mn cm | humidity % | barometer mb |
| 20260503203625 | -1 | 320 | 4.8 | 8.0 | 0.00 | 0.00 | 0.00 | 75 | 1005.6 |
| 20260503202704 | -1 | 320 | 4.8 | 6.4 | 0.00 | 0.00 | 0.00 | 74 | 1005.7 |
| 20260503201804 | 0 | 320 | 4.8 | 6.4 | 0.00 | 0.00 | 0.00 | 71 | 1005.6 |
| 20260503200904 | 0 | 320 | 4.8 | 8.0 | 0.00 | 0.00 | 0.00 | 69 | 1005.7 |
| 20260503200025 | 0 | 313 | 6.4 | 9.7 | 0.00 | 0.00 | 0.00 | 69 | 1005.7 |
| 20260503195404 | 0 | 317 | 4.8 | 8.0 | 0.00 | 0.00 | 0.00 | 70 | 1005.7 |
| 20260503194504 | 0 | 317 | 4.8 | 8.0 | 0.00 | 0.00 | 0.00 | 71 | 1005.7 |
| 20260503193604 | 0 | 317 | 4.8 | 8.0 | 0.00 | 0.00 | 0.00 | 70 | 1005.7 |
| 20260503192704 | 0 | 317 | 4.8 | 8.0 | 0.00 | 0.00 | 0.00 | 70 | 1005.7 |
| 20260503191804 | 0 | 317 | 4.8 | 8.0 | 0.00 | 0.00 | 0.00 | 70 | 1005.7 |
| 20260503190904 | 0 | 317 | 3.2 | 4.8 | 0.00 | 0.00 | 0.00 | 69 | 1005.6 |
| 20260503190025 | 1 | 317 | 3.2 | 6.4 | 0.00 | 0.00 | 0.00 | 66 | 1005.6 |
| 20260503185404 | 1 | 317 | 3.2 | 6.4 | 0.00 | 0.00 | 0.00 | 66 | 1005.6 |
| 20260503184504 | 1 | 317 | 3.2 | 6.4 | 0.00 | 0.00 | 0.00 | 65 | 1005.6 |
| 20260503183604 | 1 | 317 | 1.6 | 4.8 | 0.00 | 0.00 | 0.00 | 65 | 1005.6 |
| 20260503182704 | 2 | 317 | 1.6 | 4.8 | 0.00 | 0.00 | 0.00 | 62 | 1005.5 |
| 20260503181804 | 3 | 317 | 3.2 | 6.4 | 0.00 | 0.00 | 0.00 | 60 | 1005.5 |
| 20260503180904 | 3 | 331 | 4.8 | 8.0 | 0.00 | 0.00 | 0.00 | 56 | 1005.5 |
| 20260503180004 | 4 | 325 | 4.8 | 6.4 | 0.00 | 0.00 | 0.00 | 54 | 1005.4 |
| 20260503175404 | 5 | 312 | 4.8 | 6.4 | 0.00 | 0.00 | 0.00 | 51 | 1005.3 |
| 20260503174504 | 5 | 312 | 4.8 | 6.4 | 0.00 | 0.00 | 0.00 | 50 | 1005.4 |
| 20260503173625 | 6 | 312 | 6.4 | 14.5 | 0.00 | 0.00 | 0.00 | 48 | 1005.3 |
| 20260503172704 | 6 | 325 | 9.7 | 16.1 | 0.00 | 0.00 | 0.00 | 46 | 1005.3 |
| 20260503171804 | 7 | 316 | 9.7 | 19.3 | 0.00 | 0.00 | 0.00 | 45 | 1005.2 |
| 20260503170904 | 7 | 302 | 11.3 | 22.5 | 0.00 | 0.00 | 0.00 | 45 | 1005.2 |
| 20260503150904 | 7 | 311 | 14.5 | 25.7 | 0.00 | 0.00 | 0.00 | 41 | 1004.9 |
| 20260503130925 | 8 | 308 | 17.7 | 30.6 | 0.00 | 0.00 | 0.00 | 46 | 1004.5 |
| 20260503080904 | 7 | 294 | 12.9 | 25.7 | 0.00 | 0.00 | 0.00 | 51 | 1003.8 |
| 20260503072703 | 7 | 295 | 11.3 | 24.1 | 0.00 | 0.00 | 0.00 | 53 | 1003.6 |
| 20260503071803 | 6 | 281 | 9.7 | 24.1 | 0.00 | 0.00 | 0.00 | 57 | 1003.3 |
| 20260503070903 | 7 | 279 | 8.0 | 24.1 | 0.00 | 0.00 | 0.00 | 56 | 1003.4 |
| 20260503054503 | 5 | 299 | 11.3 | 17.7 | 0.00 | 0.00 | 0.00 | 63 | 1003.1 |
| 20260503053603 | 5 | 298 | 9.7 | 17.7 | 0.00 | 0.00 | 0.00 | 64 | 1003.2 |
| 20260503052724 | 5 | 301 | 11.3 | 19.3 | 0.00 | 0.00 | 0.00 | 64 | 1003.1 |
| 20260503051803 | 5 | 294 | 11.3 | 20.9 | 0.00 | 0.00 | 0.00 | 65 | 1003.1 |
| 20260503050903 | 5 | 319 | 11.3 | 19.3 | 0.00 | 0.00 | 0.00 | 65 | 1002.9 |
| 20260503050003 | 5 | 305 | 11.3 | 20.9 | 0.00 | 0.00 | 0.00 | 65 | 1002.9 |
| 20260503045424 | 5 | 296 | 11.3 | 19.3 | 0.00 | 0.00 | 0.00 | 65 | 1002.8 |
| 20260503044504 | 5 | 298 | 9.7 | 19.3 | 0.00 | 0.00 | 0.00 | 65 | 1002.7 |
| 20260503043603 | 5 | 305 | 9.7 | 14.5 | 0.00 | 0.00 | 0.00 | 66 | 1002.8 |
| 20260503042724 | 5 | 299 | 9.7 | 17.7 | 0.00 | 0.00 | 0.00 | 66 | 1002.9 |
| 20260503041803 | 5 | 287 | 8.0 | 16.1 | 0.00 | 0.00 | 0.00 | 67 | 1002.3 |
| 20260503040903 | 4 | 299 | 8.0 | 16.1 | 0.00 | 0.00 | 0.00 | 67 | 1002.2 |
| 20260503040003 | 4 | 285 | 9.7 | 16.1 | 0.00 | 0.00 | 0.00 | 67 | 1002.1 |
| 20260503035424 | 4 | 290 | 9.7 | 16.1 | 0.00 | 0.00 | 0.00 | 67 | 1001.5 |
| 20260503034503 | 4 | 287 | 8.0 | 16.1 | 0.00 | 0.00 | 0.00 | 68 | 1003.4 |
| 20260503033603 | 4 | 292 | 9.7 | 16.1 | 0.00 | 0.00 | 0.00 | 68 | 1002.7 |
| 20260503032703 | 4 | 301 | 8.0 | 16.1 | 0.00 | 0.00 | 0.00 | 68 | 1002.5 |
| 20260503031824 | 4 | 290 | 6.4 | 12.9 | 0.00 | 0.00 | 0.00 | 69 | 1002.5 |
| 20260503030924 | 3 | 286 | 6.4 | 14.5 | 0.00 | 0.00 | 0.00 | 68 | 1002.5 |
| 20260503030004 | 3 | 291 | 6.4 | 14.5 | 0.00 | 0.00 | 0.00 | 69 | 1002.4 |
| 20260503025403 | 3 | 296 | 4.8 | 12.9 | 0.00 | 0.00 | 0.00 | 68 | 1002.4 |
| 20260503024503 | 3 | 286 | 6.4 | 12.9 | 0.00 | 0.00 | 0.00 | 68 | 1002.4 |
| 20260503023603 | 4 | 278 | 6.4 | 12.9 | 0.00 | 0.00 | 0.00 | 68 | 1002.4 |
| 20260503022703 | 4 | 286 | 6.4 | 11.3 | 0.00 | 0.00 | 0.00 | 68 | 1002.3 |
| 20260503021803 | 5 | 294 | 6.4 | 14.5 | 0.00 | 0.00 | 0.00 | 67 | 1002.2 |
| 20260503020924 | 5 | 290 | 8.0 | 17.7 | 0.00 | 0.00 | 0.00 | 66 | 1002.3 |
| 20260503020004 | 5 | 286 | 9.7 | 17.7 | 0.00 | 0.00 | 0.00 | 66 | 1002.3 |
| 20260503015403 | 5 | 285 | 9.7 | 17.7 | 0.00 | 0.00 | 0.00 | 66 | 1002.4 |
| 20260503014503 | 5 | 288 | 6.4 | 12.9 | 0.00 | 0.00 | 0.00 | 66 | 1002.2 |
| 20260503013624 | 5 | 289 | 4.8 | 11.3 | 0.00 | 0.00 | 0.00 | 66 | 1002.4 |
| 20260503012703 | 5 | 262 | 4.8 | 9.7 | 0.00 | 0.00 | 0.00 | 65 | 1002.3 |
| 20260503011803 | 5 | 263 | 3.2 | 9.7 | 0.00 | 0.00 | 0.00 | 64 | 1002.3 |
| 20260503010904 | 5 | 280 | 4.8 | 12.9 | 0.00 | 0.00 | 0.00 | 63 | 1002.1 |
| 20260503010004 | 5 | 275 | 4.8 | 11.3 | 0.00 | 0.00 | 0.00 | 62 | 1002.2 |
| 20260503005403 | 5 | 278 | 4.8 | 11.3 | 0.00 | 0.00 | 0.00 | 62 | 1002.2 |
| 20260503004503 | 5 | 283 | 4.8 | 16.1 | 0.00 | 0.00 | 0.00 | 63 | 1002.1 |
| 20260503003603 | 6 | 287 | 4.8 | 16.1 | 0.00 | 0.00 | 0.00 | 63 | 1002.3 |
| 20260503002703 | 6 | 275 | 6.4 | 12.9 | 0.00 | 0.00 | 0.00 | 64 | 1002.3 |
| 20260503001803 | 6 | 274 | 6.4 | 11.3 | 0.00 | 0.00 | 0.00 | 64 | 1002.2 |
| 20260503000924 | 6 | 283 | 4.8 | 12.9 | 0.00 | 0.00 | 0.00 | 65 | 1002.2 |
| 20260503000004 | 6 | 285 | 6.4 | 12.9 | 0.00 | 0.00 | 0.00 | 65 | 1002.3 |
| 20260502235403 | 6 | 289 | 6.4 | 14.5 | 0.00 | 0.00 | 0.00 | 66 | 1002.3 |
| 20260502234503 | 6 | 275 | 4.8 | 11.3 | 0.00 | 0.00 | 0.00 | 67 | 1002.3 |
| 20260502233603 | 6 | 274 | 4.8 | 11.3 | 0.00 | 0.00 | 0.00 | 67 | 1002.2 |
| 20260502232724 | 6 | 286 | 8.0 | 14.5 | 0.00 | 0.00 | 0.00 | 67 | 1002.2 |
| 20260502231803 | 6 | 292 | 9.7 | 19.3 | 0.00 | 0.00 | 0.00 | 69 | 1002.3 |
| 20260502230903 | 6 | 296 | 8.0 | 19.3 | 0.00 | 0.00 | 0.00 | 70 | 1002.2 |
| 20260502230024 | 6 | 305 | 6.4 | 11.3 | 0.00 | 0.00 | 0.00 | 71 | 1002.0 |
| 20260502225403 | 6 | 301 | 4.8 | 9.7 | 0.00 | 0.00 | 0.00 | 71 | 1002.1 |
| 20260502224524 | 6 | 306 | 4.8 | 11.3 | 0.00 | 0.00 | 0.00 | 71 | 1002.1 |
| 20260502223603 | 6 | 304 | 4.8 | 9.7 | 0.00 | 0.00 | 0.00 | 72 | 1002.1 |
| 20260502222703 | 6 | 299 | 4.8 | 11.3 | 0.00 | 0.00 | 0.00 | 72 | 1002.1 |
| 20260502221824 | 6 | 308 | 6.4 | 12.9 | 0.00 | 0.00 | 0.00 | 72 | 1002.0 |
| 20260502220903 | 7 | 292 | 6.4 | 14.5 | 0.00 | 0.00 | 0.00 | 72 | 1002.1 |
| 20260502220003 | 7 | 294 | 6.4 | 11.3 | 0.00 | 0.00 | 0.00 | 72 | 1001.9 |
| 20260502215403 | 7 | 294 | 4.8 | 11.3 | 0.00 | 0.00 | 0.00 | 72 | 1002.0 |
| 20260502214503 | 7 | 287 | 6.4 | 14.5 | 0.00 | 0.00 | 0.00 | 72 | 1001.9 |
| 20260502213603 | 7 | 289 | 6.4 | 12.9 | 0.00 | 0.00 | 0.00 | 73 | 1001.9 |
| 20260502212703 | 7 | 288 | 6.4 | 12.9 | 0.00 | 0.00 | 0.00 | 72 | 1001.8 |
| 20260502211803 | 7 | 289 | 6.4 | 12.9 | 0.00 | 0.00 | 0.00 | 72 | 1001.8 |
| 20260502210924 | 7 | 294 | 6.4 | 12.9 | 0.00 | 0.00 | 0.00 | 72 | 1001.8 |
| 20260502210006 | 7 | 291 | 4.8 | 11.3 | 0.00 | 0.00 | 0.00 | 72 | 1001.8 |
| 20260502205403 | 7 | 296 | 4.8 | 12.9 | 0.00 | 0.00 | 0.00 | 72 | 1001.8 |
| 20260502204503 | 7 | 299 | 4.8 | 9.7 | 0.00 | 0.00 | 0.00 | 72 | 1001.8 |